Redding, CA

7:41 PM PST on November 13, 2019 (GMT -0800)
Redding Municipal

Weather History for KRDD - September, 2019

Change the Weather History Date:

Friday, September 13, 2019

  Actual Average Record
Temperature  
Mean Temperature 79 °F -  
Max Temperature 99 °F 91 °F 109 °F (1971)
Min Temperature 58 °F 58 °F 40 °F (1948)
Degree Days  
Heating Degree Days 0    
Cooling Degree Days 14    
Growing Degree Days 28 (Base 50)    
Moisture  
Dew Point 42 °F    
Average Humidity 33    
Maximum Humidity 55    
Minimum Humidity 11    
Precipitation  
Precipitation 0.00 in 0.02 in 1.09 in (1918)
Month to date precipitation T 0.24  
Year to date precipitation 32.27 21.37  
Sea Level Pressure  
Sea Level Pressure 29.94 in    
Wind  
Wind Speed 4 mph (SE)    
Max Wind Speed 13 mph    
Max Gust Speed 16 mph    
Visibility 10 miles    
Events      
T = Trace of Precipitation, MM = Missing Value Source: NWS Daily Summary

Daily Weather History Graph

Daily Weather History Graph

Search for Another Location

Airport or City:

Astronomy

Sep. 13, 2019 Rise Set
Actual Time 6:47 AM PDT 7:21 PM PDT
Civil Twilight 6:20 AM PDT 7:49 PM PDT
Nautical Twilight 5:47 AM PDT 8:21 PM PDT
Astronomical Twilight 5:14 AM PDT 8:54 PM PDT
Moon 7:37 PM PDT (9/13) 6:09 AM PDT (9/13)
Length of Visible Light 13h 28m
Length of Day
12h 33m
Full, 100% of the Moon is Illuminated
Sep 13
Full
Sep 13
Full
Sep 21
Last Quarter
Sep 28
New
Oct 5
First Quarter

Hourly Weather History & Observations

Time (PDT) Temp. Dew Point Humidity Pressure Visibility Wind Dir Wind Speed Gust Speed Precip Events Conditions
12:53 AM 73.0 °F 39.9 °F 30% 29.99 in 10.0 mi North 5.8 mph - N/A   Clear
1:53 AM 68.0 °F 41.0 °F 37% 29.99 in 10.0 mi NNW 6.9 mph - N/A   Clear
2:53 AM 66.9 °F 43.0 °F 42% 29.99 in 10.0 mi North 4.6 mph - N/A   Clear
3:53 AM 63.0 °F 44.1 °F 50% 29.98 in 10.0 mi Calm Calm - N/A   Clear
4:53 AM 61.0 °F 44.1 °F 54% 29.98 in 10.0 mi Calm Calm - N/A   Clear
5:53 AM 61.0 °F 44.1 °F 54% 29.98 in 10.0 mi Calm Calm - N/A   Clear
6:53 AM 60.1 °F 44.1 °F 55% 29.99 in 10.0 mi Calm Calm - N/A   Clear
7:53 AM 64.0 °F 44.1 °F 48% 30.00 in 10.0 mi Calm Calm - N/A   Clear
8:53 AM 73.9 °F 44.1 °F 34% 30.00 in 10.0 mi Calm Calm - N/A   Clear
9:53 AM 82.9 °F 45.0 °F 26% 29.99 in 10.0 mi NW 5.8 mph - N/A   Clear
10:53 AM 89.1 °F 42.1 °F 19% 29.98 in 10.0 mi North - - N/A   Clear
11:53 AM 93.9 °F 39.9 °F 15% 29.96 in 10.0 mi ENE 8.1 mph - N/A   Clear
12:53 PM 95.0 °F 44.1 °F 17% 29.95 in 10.0 mi North - - N/A   Clear
1:53 PM 97.0 °F 42.1 °F 15% 29.93 in 10.0 mi SSE 4.6 mph - N/A   Clear
2:53 PM 99.0 °F 37.0 °F 12% 29.91 in 10.0 mi SSE 8.1 mph - N/A   Clear
3:53 PM 98.1 °F 36.0 °F 11% 29.89 in 10.0 mi South 8.1 mph - N/A   Clear
4:53 PM 98.1 °F 36.0 °F 11% 29.88 in 10.0 mi SSE 11.5 mph - N/A   Clear
5:53 PM 97.0 °F 37.0 °F 12% 29.87 in 10.0 mi SSE 11.5 mph - N/A   Clear
6:53 PM 91.9 °F 42.1 °F 18% 29.87 in 10.0 mi South 6.9 mph - N/A   Clear
7:53 PM 87.1 °F 43.0 °F 21% 29.88 in 10.0 mi South 6.9 mph - N/A   Clear
8:53 PM 82.0 °F 44.1 °F 26% 29.89 in 9.0 mi Calm Calm - N/A   Clear
9:53 PM 75.9 °F 45.0 °F 33% 29.91 in 10.0 mi Calm Calm - N/A   Clear
10:53 PM 72.0 °F 45.0 °F 38% 29.91 in 10.0 mi NNE 4.6 mph - N/A   Clear
11:53 PM 70.0 °F 43.0 °F 38% 29.91 in 10.0 mi NW 3.5 mph - N/A   Clear